Regional Weather Roundup
Issued by NWS

Home | Current Version | Previous Version | Text Only | Print | Product List | Glossary Off
Versions: 1 2 3 4 5 6 7 8 9 10 11 12 13 14 15 16 17 18 19 20 21 22 23 24 25 26 27 28 29 30 31 32 33 34 35 36 37 38 39 40 41 42 43 44 45 46 47 48 49 50

000
ASUS45 KCYS 030210
RWRWY

WYOMING REGIONAL WEATHER ROUNDUP
NATIONAL WEATHER SERVICE CHEYENNE WY
800 PM MDT SUN AUG 02 2015

NOTE:  "FAIR" INDICATES FEW OR NO CLOUDS BELOW 12,000 FEET
WITH NO SIGNIFICANT WEATHER AND/OR OBSTRUCTIONS TO VISIBILITY.

WYZ001-030300-
YELLOWSTONE NATIONAL PARK

CITY           SKY/WX    TMP DP  RH WIND       PRES   REMARKS
LK YELLOWSTONE   N/A     68  40  35 NW3       30.25S
W YELLOWSTONE  NOT AVBL

$$
WYZ002>013-054>058-071-098>099-030300-
NORTHERN WYOMING

CITY           SKY/WX    TMP DP  RH WIND       PRES   REMARKS
JACKSON        CLEAR     77  46  33 CALM      30.10S
CODY           FAIR      77  43  29 N10       30.07R
GREYBULL       FAIR      90  36  14 NW20      29.92S
WORLAND        FAIR      88  36  15 N3        29.94S
SHERIDAN       FAIR      80  44  27 W10       30.00R
BUFFALO        FAIR      80  42  25 NW9       30.09R
GILLETTE       FAIR      80  47  31 NE9       30.02R
HULETT         FAIR      75  46  35 E7        30.04R
NEWCASTLE      FAIR      79  48  34 MISG      30.02R

$$
WYZ014>020-022>026-101>103-030300-
CENTRAL WYOMING

CITY           SKY/WX    TMP DP  RH WIND       PRES   REMARKS
BIG PINEY      FAIR      81  30  15 NW6       30.14S
PINEDALE       FAIR      77  30  18 E7        30.16R
DUBOIS         FAIR      77  23  13 SE13      30.18R
LANDER         FAIR      83  25  12 N7        30.03S
RIVERTON       FAIR      85  24  11 NE7       30.05R
CASPER         FAIR      84  33  16 N15       30.03R
DOUGLAS        FAIR      84  41  21 SE13      30.01S

$$
WYZ021-027>030-104>119-030300-
SOUTHERN WYOMING

CITY           SKY/WX    TMP DP  RH WIND       PRES   REMARKS
EVANSTON       FAIR      73  39  29 SW16      30.15S
KEMMERER       FAIR     N/A N/A N/A CALM      30.14S
FORT BRIDGER   CLEAR     77  37  24 W21G28    30.17R
ROCK SPRINGS   FAIR      77  32  19 SW12      30.11S
DIXON          FAIR      77  43  30 S13       30.15R
RAWLINS        FAIR      81  27  14 NE9       30.13R
SARATOGA       FAIR      72  39  30 SE7       30.15S
LARAMIE        FAIR      71  42  35 SE8       30.19R
CHEYENNE       FAIR      77  47  34 S10       30.12R
TORRINGTON     FAIR      81  51  35 E7        29.96S
PINE BLUFFS    FAIR      75  46  35 SE7       30.06R

$$



USA.gov is the U.S. government's official web portal to all federal, state and local government web resources and services.